Flag for Japan Weather past 2 weeks in Yokosuka, Japan

Now
77 °F

Partly cloudy.


Feels Like: 78 °F
Forecast: 76 / 84 °F
Wind: 16 mph from Southwest

Location: Tokyo International Airport

Current Time: Sep 3, 2015 at 11:04:25 PM

Latest Report: Sep 3, 2015 at 10:30 PM


Visibility: N/A

Pressure: 29.80 "Hg

Humidity: 83%

Dew point: 72 °F

Location of YokosukaLocation

Historic Weather in Yokosuka — Graph

°F

Yokosuka temperature yesterday

Maximum temperature yesterday: 86 °F (at 1:30 PM)
Minimum temperature yesterday: 77 °F (at 8:00 AM)
Average temperature yesterday: 81 °F

Past Weeks' High & Low Weather Summary

 TemperatureHumidityPressure
High88 °F (Aug 22, 10:30 AM)100% (Aug 26, 4:30 AM)30.01 "Hg (Aug 26, 4:30 AM)
Low66 °F (Aug 26, 12:00 AM)58% (Aug 24, 12:30 PM)29.50 "Hg (Aug 22, 2:30 PM)
Average76 °F84%29.80 "Hg
* Reported Aug 19 10:00 PM — Sep 3 10:00 PM, Yokosuka, Weather by CustomWeather, © 2015

Note: Actual official high and low records may vary slightly from our data, if they occured in-between our weather recording intervals... More about our weather records

Advertising

Yokosuka weather history for previous 24 hours

 ConditionsComfort  
Time TempWeatherWind HumidityBarometerVisibility
10:00 PM
Thu, Sep 3
77 °FPartly cloudy.16 mph83%29.80 "HgN/A
9:30 PM77 °FPassing clouds.20 mph83%29.80 "HgN/A
9:00 PM79 °FPartly cloudy.17 mph79%29.80 "HgN/A
8:30 PM79 °FSprinkles. Passing clouds.16 mph79%29.83 "HgN/A
8:00 PM77 °FSprinkles. Partly cloudy.12 mph83%29.83 "HgN/A
7:30 PM79 °FSprinkles. Partly cloudy.8 mph79%29.83 "HgN/A
7:00 PM79 °FSprinkles. Partly cloudy.9 mph79%29.83 "HgN/A
6:30 PM79 °FSprinkles. Partly cloudy.15 mph79%29.83 "HgN/A
6:00 PM79 °FSprinkles. Broken clouds.10 mph79%29.83 "HgN/A
5:30 PM79 °FSprinkles. Partly sunny.13 mph79%29.83 "HgN/A
5:00 PM81 °FSprinkles. Broken clouds.21 mph74%29.83 "HgN/A
4:30 PM82 °FPartly sunny.15 mph70%29.83 "HgN/A
4:00 PM82 °FBroken clouds.15 mph74%29.83 "HgN/A
3:30 PM84 °FBroken clouds.15 mph66%29.83 "HgN/A
3:00 PM84 °FSprinkles. Partly sunny.15 mph66%29.83 "HgN/A
2:30 PM84 °FBroken clouds.14 mph70%29.83 "HgN/A
2:00 PM81 °FBroken clouds.9 mph79%29.83 "HgN/A
1:30 PM81 °FBroken clouds.8 mph79%29.86 "HgN/A
1:00 PM82 °FPartly sunny.8 mph74%29.86 "HgN/A
12:30 PM82 °FScattered clouds.9 mph74%29.86 "HgN/A
12:00 PM82 °FScattered clouds.6 mph70%29.86 "HgN/A
11:30 AM82 °FPartly sunny.3 mph70%29.86 "HgN/A
11:00 AM81 °FPartly sunny.3 mph74%29.89 "HgN/A
10:30 AM79 °FPartly sunny.3 mph79%29.89 "HgN/A
10:00 AM79 °FPartly sunny.2 mph74%29.92 "HgN/A
9:30 AM79 °FPartly sunny.2 mph74%29.92 "HgN/A
9:00 AM79 °FPartly sunny.3 mph74%29.92 "HgN/A
8:30 AM79 °FPartly sunny.6 mph74%29.92 "HgN/A
8:00 AM79 °FPartly sunny.9 mph74%29.92 "HgN/A
7:30 AM77 °FPartly sunny.9 mph74%29.92 "HgN/A
7:00 AM77 °FPartly sunny.10 mph79%29.92 "HgN/A
6:30 AM77 °FBroken clouds.7 mph89%29.92 "HgN/A
6:00 AM75 °FBroken clouds.5 mph89%29.89 "HgN/A
5:30 AM75 °FPartly sunny.5 mph83%29.89 "HgN/A
5:00 AM75 °FPassing clouds.7 mph83%29.89 "HgN/A
4:30 AM75 °FPassing clouds.5 mph83%29.86 "HgN/A
4:00 AM75 °FPassing clouds.5 mph83%29.86 "HgN/A
3:30 AM75 °FPassing clouds.5 mph83%29.86 "HgN/A
3:00 AM77 °FPartly cloudy.5 mph79%29.86 "HgN/A
2:30 AM79 °FPassing clouds.7 mph70%29.86 "HgN/A
2:00 AM79 °FPassing clouds.5 mph70%29.86 "HgN/A
1:30 AM79 °FPartly cloudy.5 mph70%29.86 "HgN/A
12:30 AM81 °FPassing clouds.7 mph66%29.86 "HgN/A
12:00 AM81 °FPassing clouds.9 mph66%29.86 "HgN/A
11:30 PM
Wed, Sep 2
82 °FPassing clouds.8 mph62%29.86 "HgN/A
11:00 PM81 °FPassing clouds.9 mph74%29.86 "HgN/A
Weather by CustomWeather, © 2015

See weather overviewHow to use our weather pages